This is the latest recevied weather packets stored in our database for station/object N4ASP-13. If no packets are shown the sender has not sent any weather packets the latest 1 day(s).
| Time | Temp. | Humidity | Pressure | Rain* | Wind** | Luminosity | Snow |
|---|---|---|---|---|---|---|---|
| 1778082124 | 15.56° C | 88% | 1014.4 hPa | 0 mm | - | 229 W/m² | - |
| 1778082064 | 15.56° C | 87% | 1014.4 hPa | 0 mm | - | 244 W/m² | - |
| 1778082006 | 15.56° C | 87% | 1014.5 hPa | 0 mm | - | 262 W/m² | - |
| 1778081584 | 15.56° C | 87% | 1013.9 hPa | 0 mm | - | 151 W/m² | - |
| 1778081344 | 16.11° C | 87% | 1014 hPa | 0 mm | - | 142 W/m² | - |
| 1778080984 | 16.11° C | 87% | 1014.2 hPa | 0 mm | - | 167 W/m² | - |
| 1778080924 | 16.11° C | 87% | 1014.3 hPa | 0 mm | - | 183 W/m² | - |
| 1778080560 | 16.11° C | 87% | 1014.3 hPa | 0 mm | - | 199 W/m² | - |
| 1778080320 | 16.11° C | 86% | 1014.2 hPa | 0 mm | - | 188 W/m² | - |
| 1778080201 | 16.11° C | 86% | 1013.7 hPa | 0 mm | - | 153 W/m² | - |
| 1778080021 | 16.11° C | 86% | 1013.3 hPa | 0 mm | - | 151 W/m² | - |
| 1778079841 | 16.11° C | 86% | 1013.3 hPa | 0 mm | - | 165 W/m² | - |
| 1778079720 | 16.11° C | 86% | 1013.3 hPa | 0 mm | - | 185 W/m² | - |
| 1778079361 | 16.11° C | 87% | 1013.3 hPa | 0 mm | - | 260 W/m² | - |
| 1778079240 | 16.11° C | 87% | 1013.3 hPa | 0 mm | - | 330 W/m² | - |
| 1778078992 | 15.56° C | 87% | 1013.3 hPa | 0 mm | - | 295 W/m² | - |
| 1778078932 | 15.56° C | 87% | 1013.3 hPa | 0 mm | - | 292 W/m² | - |
| 1778078753 | 15.56° C | 87% | 1013.4 hPa | 0 mm | - | 229 W/m² | - |
| 1778078693 | 15.56° C | 87% | 1013.4 hPa | 0 mm | - | 218 W/m² | - |
| 1778078573 | 15.56° C | 87% | 1013.4 hPa | 0 mm | - | 200 W/m² | - |
| 1778078452 | 15.56° C | 87% | 1013.5 hPa | 0 mm | - | 197 W/m² | - |
| 1778078332 | 15.56° C | 86% | 1013.4 hPa | 0 mm | - | 206 W/m² | - |
| 1778078152 | 15.56° C | 86% | 1013.5 hPa | 0 mm | - | 192 W/m² | - |
| 1778078032 | 15.56° C | 86% | 1013.5 hPa | 0 mm | - | 181 W/m² | - |
| 1778077791 | 15.56° C | 85% | 1013.5 hPa | 0 mm | - | 142 W/m² | - |
* Rain latest hour (hover to see other rain measurements)
** Current wind speed in m/s (hover to see current wind gust speed)